Location: Praha
(50.0830°N, 14.4670°E)
Time: 05:12:15
(UTC+02:00)

ISS - Pass Details

Date: 11 July 2024
Orbit: 409 x 423 km, 51.6° (Epoch: 24 July)

Event Time Altitude Azimuth Distance (km) Brightness Sun altitude
Rises 22:12:23 0° 233° (SW) 2,328 0.1 -8.2°
Reaches altitude 10° 22:14:31 10° 227° (SW) 1,470 -1.0 -8.4°
Maximum altitude 22:17:41 46° 153° (SSE) 558 -3.6 -8.7°
Drops below altitude 10° 22:20:53 10° 78° (ENE) 1,479 -1.2 -9.1°
Sets 22:23:01 0° 73° (ENE) 2,344 -0.2 -9.3°
